[[{"header":{"parameterUnit":"m.s-1","parameterCategory":1,"la1":30.2991,"la2":30.254,"lo1":-89.0895,"lo2":-89.0444,"dy":0.0017,"dx":0.0017,"nx":28,"ny":28,"refTime":"2025-07-08T21:00:00:Z","depth":0,"parameterNumber":2,"parameterNumberName":"U-component_of_WINDS"},"data":[0,0,0,0,0,0,0,0,0,0,0,0,0,0,0,0,0,0,0,0,0,0,0,0,0,0,0,0,0,0,0,0,0,0,0,0,0,0,0,0,0,0,0,0,0,0,0,0,0,0,0,0,0,0,0,0,0,0,2.7307,2.7308,0,2.746,2.7462,2.7464,2.7457,2.7454,2.7452,2.745,2.7616,2.7622,2.7628,0,0,0,0,0,0,0,0,0,0,0,0,0,2.7016,2.7022,2.7307,2.7309,2.7311,2.746,2.7462,2.7464,2.7457,2.7454,2.7452,2.7449,2.7613,2.7621,2.7629,0,0,0,0,0,0,0,0,0,0,0,0,0,2.7153,2.7023,2.7306,2.7325,2.7328,2.7459,2.7462,2.7465,2.7458,2.7454,2.7451,2.7448,2.7611,2.762,2.763,2.7756,0,0,2.7659,2.7664,0,0,0,0,0,0,0,0,2.7146,2.7164,2.732,2.7324,2.7328,2.7436,2.742,2.7562,2.7458,2.7409,2.745,2.7446,2.7559,2.7573,2.7609,2.7763,2.777,2.766,2.7666,2.767,2.7673,0,0,0,0,0,0,0,2.7136,2.7158,2.7368,2.7323,2.7327,2.7328,2.7344,2.7447,2.7501,2.7413,2.7413,2.743,2.756,2.76,2.7613,2.7773,2.766,2.7669,2.7675,2.7678,2.8039,2.8042,0,0,0,0,0,0,2.7121,2.715,2.7363,2.7372,2.7226,2.7336,2.7354,2.7404,2.7499,2.7511,2.7433,2.7429,2.7585,2.7602,2.7619,2.7772,2.767,2.7679,2.7685,2.8035,2.8039,2.8043,0,0,0,0,0,0,2.7115,2.7141,2.7357,2.7261,2.7288,2.7344,2.7402,2.7409,2.7448,2.7515,2.7525,2.7463,2.7583,2.7605,2.7721,2.7777,2.7684,2.7693,2.803,2.8036,2.8041,2.8079,0,0,0,0,0,0,2.7107,2.7138,2.7185,2.7262,2.7293,2.7454,2.7405,2.7415,2.7464,2.7461,2.7545,2.7556,2.7582,2.7707,2.7731,2.7789,2.77,2.8026,2.8033,2.804,2.8073,2.8085,2.8096,0,0,0,0,0,2.7097,2.7191,2.7187,2.7213,2.7352,2.7457,2.7476,2.7501,2.7468,2.7517,2.756,2.7554,2.7767,2.7718,2.7746,2.7808,2.8022,2.8031,2.8039,2.8068,2.8083,2.8095,0,0,0,0,0,0,2.7122,2.7201,2.7198,2.7319,2.7381,2.7456,2.7517,2.7516,2.759,2.7585,2.7615,2.7635,2.7751,2.7791,2.7735,2.7935,2.7891,2.7905,2.7904,2.7918,2.7929,2.7917,2.7708,0,0,0,0,0,2.7141,2.7217,2.7283,2.7384,2.7415,2.7461,2.7508,2.7522,2.7588,2.7615,2.7666,2.7733,2.7816,2.7869,2.7949,2.8079,2.8098,2.8135,2.8147,2.8155,2.8167,2.824,2.8257,2.8071,2.8071,2.8071,0,0,2.7182,2.7235,2.7282,2.7391,2.744,2.752,2.7483,2.757,2.763,2.7629,2.7741,2.7781,2.7858,2.7981,2.8039,2.8019,2.8223,2.8166,2.8173,2.818,2.825,2.8268,2.8283,2.8077,2.8076,2.8075,0,0,2.7298,2.7345,2.7434,2.7484,2.7558,2.7588,2.761,2.7685,2.771,2.7822,2.7823,2.7897,2.8038,2.8093,2.814,2.8276,2.8274,2.8302,2.8361,2.8431,2.8446,2.8459,2.8508,2.8525,2.8314,2.8314,2.8314,0,2.7341,2.7458,2.7481,2.7567,2.7616,2.7616,2.7708,2.7756,2.7854,2.7889,2.7865,2.8041,2.8094,2.823,2.8263,2.8301,2.8327,2.8292,2.8441,2.8455,2.8468,2.8515,2.8533,2.8317,2.8316,2.8316,2.8316,0,2.7507,2.759,2.7653,2.7744,2.78,2.7889,2.7927,2.7982,2.7991,2.8025,2.814,2.8202,2.8294,2.8328,2.8339,2.8466,2.8451,2.8434,2.8391,2.8488,2.8532,2.8551,2.8321,2.832,2.8319,2.8318,0,0,2.7643,2.7744,2.7767,2.7809,2.7891,2.7956,2.8047,2.8133,2.818,2.8248,2.8325,2.8445,2.8429,2.8482,2.8499,2.8561,2.8666,2.8536,2.8539,2.8558,2.881,2.8822,2.8842,2.8664,2.8668,2.8671,2.8803,0,2.7767,2.7922,2.7945,2.8084,2.8161,2.8162,2.8241,2.8301,2.8335,2.8408,2.8446,2.853,2.8503,2.8535,2.8596,2.864,2.8717,2.8631,2.8738,2.8742,2.8718,2.8866,2.8879,2.9,2.8821,2.8824,2.8826,0,2.7931,2.8,2.8146,2.8217,2.8251,2.832,2.8402,2.8471,2.8541,2.8561,2.8619,2.863,2.8726,2.8679,2.8812,2.8753,2.8799,2.8828,2.8833,2.8844,2.8789,2.888,2.904,2.9058,2.8854,2.8852,2.885,0,2.8015,2.8145,2.8248,2.8284,2.837,2.8419,2.8458,2.8524,2.8575,2.8649,2.8682,2.8767,2.8813,2.8879,2.8913,2.8875,2.9044,2.9,2.9065,2.9065,2.91,2.9098,2.9269,2.9131,2.9131,2.913,2.913,0,2.815,2.8239,2.8287,2.835,2.8451,2.8478,2.8577,2.8616,2.8674,2.8747,2.8756,2.8825,2.8865,2.8941,2.8969,2.9075,2.9096,2.9117,2.9123,2.9116,2.9113,2.9146,2.9138,2.9135,2.9134,2.9133,2.9132,0,2.826,2.8295,2.8408,2.848,2.85,2.8571,2.8634,2.8698,2.8731,2.8823,2.8847,2.8901,2.899,2.903,2.9142,2.916,2.9282,2.9283,2.9257,2.9259,2.9322,2.9316,2.9521,2.9549,2.9392,2.9394,2.9395,0,2.8343,2.8411,2.849,2.8538,2.8577,2.8655,2.8706,2.8737,2.8791,2.8875,2.8929,2.9018,2.9091,2.9234,2.9285,2.9371,2.9373,2.9439,2.9386,2.9377,2.9374,2.9369,2.9376,2.9449,2.945,2.9451,2.9452,0,2.8488,2.8502,2.8574,2.8653,2.8713,2.8777,2.8841,2.888,2.8921,2.8982,2.9072,2.9128,2.9241,2.933,2.9418,2.9462,2.9465,2.9469,2.9488,2.9481,2.9464,2.9474,2.9283,2.9464,2.9463,2.9462,2.9461,2.9461,2.8587,2.8647,2.8711,2.8792,2.8842,2.8901,2.8963,2.9004,2.9079,2.917,2.9185,2.9282,2.9351,2.947,2.9517,2.9594,2.9579,2.9607,2.9615,2.9621,2.9624,2.9451,2.9611,2.9611,2.9611,2.961,2.961,0,2.8731,2.8772,2.8846,2.8933,2.8997,2.8991,2.9061,2.9116,2.9199,2.9263,2.9333,2.9438,2.9524,2.9581,2.9669,2.9721,2.9725,2.9743,2.9739,2.9749,2.9633,2.9607,2.9738,2.9738,2.9738,2.9738,2.9738,2.9738,2.8813,2.8915,2.8937,2.9064,2.9106,2.9198,2.9238,2.9294,2.9344,2.9459,2.953,2.9565,2.9627,2.972,2.98,2.9815,2.9847,2.9866,2.988,2.9771,2.9757,2.9745,2.972,2.9873,2.9873,2.999,2.9991,2.9991]},{"header":{"parameterUnit":"m.s-1","parameterCategory":1,"la1":30.2991,"la2":30.254,"lo1":-89.0895,"lo2":-89.0444,"dy":0.0017,"dx":0.0017,"nx":28,"ny":28,"refTime":"2025-07-08T21:00:00:Z","depth":0,"parameterNumber":3,"parameterNumberName":"V-component_of_WINDS"},"data":[0,0,0,0,0,0,0,0,0,0,0,0,0,0,0,0,0,0,0,0,0,0,0,0,0,0,0,0,0,0,0,0,0,0,0,0,0,0,0,0,0,0,0,0,0,0,0,0,0,0,0,0,0,0,0,0,0,0,3.9008,3.9009,0,3.9078,3.9079,3.908,3.8992,3.8989,3.8986,3.8983,3.9047,3.9052,3.9056,0,0,0,0,0,0,0,0,0,0,0,0,0,3.879,3.8795,3.9008,3.9009,3.901,3.9078,3.9079,3.908,3.8993,3.8989,3.8985,3.8982,3.9046,3.9051,3.9057,0,0,0,0,0,0,0,0,0,0,0,0,0,3.8875,3.8796,3.9008,3.8975,3.8973,3.9078,3.9079,3.908,3.8994,3.8989,3.8984,3.898,3.9044,3.905,3.9057,3.9196,0,0,3.9079,3.9082,0,0,0,0,0,0,0,0,3.887,3.8883,3.8979,3.8977,3.8975,3.9022,3.9026,3.9119,3.8995,3.8986,3.8983,3.8977,3.9042,3.9049,3.9072,3.9199,3.9202,3.9079,3.9084,3.9087,3.9089,0,0,0,0,0,0,0,3.8865,3.888,3.9036,3.898,3.8978,3.8954,3.8961,3.9043,3.9039,3.8986,3.898,3.899,3.904,3.9066,3.9073,3.9203,3.9079,3.9085,3.909,3.9093,3.9447,3.9452,0,0,0,0,0,0,3.8864,3.8875,3.9033,3.9038,3.891,3.8962,3.8969,3.9012,3.9038,3.9038,3.8994,3.8985,3.9056,3.9065,3.9075,3.924,3.9087,3.9093,3.9097,3.9442,3.9448,3.9454,0,0,0,0,0,0,3.886,3.8879,3.9031,3.8955,3.8973,3.8971,3.9019,3.9015,3.9041,3.9044,3.9042,3.9021,3.9053,3.9065,3.9167,3.9241,3.9096,3.9103,3.9436,3.9444,3.9451,3.9571,0,0,0,0,0,0,3.8854,3.8878,3.8932,3.8957,3.8977,3.9125,3.9023,3.902,3.9055,3.9044,3.907,3.9069,3.905,3.9157,3.9174,3.9248,3.9108,3.9429,3.944,3.9449,3.956,3.9582,3.96,0,0,0,0,0,3.8846,3.8961,3.8936,3.8955,3.9046,3.9129,3.914,3.9118,3.9061,3.9115,3.9117,3.9068,3.923,3.9169,3.9187,3.9264,3.9425,3.9437,3.9448,3.9551,3.9577,3.96,0,0,0,0,0,0,3.8942,3.8964,3.8936,3.9063,3.9095,3.9114,3.9181,3.9146,3.9193,3.9181,3.9149,3.9155,3.9265,3.9274,3.9205,3.9399,3.9318,3.9334,3.939,3.9415,3.9434,3.943,3.9114,0,0,0,0,0,3.8979,3.9047,3.9061,3.9172,3.919,3.9183,3.9218,3.9199,3.923,3.9242,3.9251,3.9281,3.9338,3.9377,3.943,3.9561,3.9565,3.9622,3.9642,3.9659,3.9673,3.9743,3.9769,3.9493,3.9493,3.9492,0,0,3.9053,3.9074,3.9119,3.9192,3.9214,3.9284,3.9195,3.9272,3.9323,3.9253,3.9351,3.9359,3.939,3.9507,3.9559,3.9518,3.975,3.9674,3.9687,3.9692,3.9758,3.9784,3.9807,3.9501,3.9499,3.9498,0,0,3.9226,3.9249,3.9344,3.937,3.9406,3.9401,3.9424,3.9449,3.9453,3.9551,3.95,3.9558,3.9658,3.9682,3.9708,3.9891,3.9848,3.9908,4.0013,4.0081,4.0103,4.0122,4.0188,4.0212,3.9923,3.9923,3.9923,0,3.9314,3.942,3.9396,3.9479,3.9512,3.9455,3.955,3.9574,3.9625,3.9648,3.9602,3.9727,3.9743,3.9866,3.9911,3.9933,3.9957,3.9906,4.0102,4.0121,4.0139,4.0201,4.0226,3.993,3.9929,3.9928,3.9928,0,3.9526,3.96,3.9672,3.9726,3.9767,3.9855,3.9843,3.9887,3.9864,3.9863,3.9963,3.9981,4.0037,4.0065,4.0041,4.0184,4.0158,4.0108,4.0025,4.0173,4.0231,4.0254,3.994,3.9938,3.9936,3.9934,0,0,3.976,3.9803,3.9829,3.9854,3.9891,3.9946,4.003,4.0088,4.0126,4.0163,4.0232,4.0318,4.0272,4.0301,4.028,4.0341,4.0485,4.0283,4.0283,4.032,4.0643,4.0682,4.071,4.0457,4.0461,4.0465,4.0641,0,3.9934,4.0084,4.0066,4.0208,4.0276,4.0223,4.0296,4.0325,4.0327,4.0382,4.0382,4.0444,4.0379,4.0396,4.0454,4.0455,4.0549,4.0442,4.0519,4.0522,4.0514,4.074,4.078,4.0946,4.0663,4.0667,4.067,0,4.0156,4.0205,4.0356,4.0383,4.0411,4.0477,4.0529,4.0583,4.0614,4.0611,4.0645,4.0613,4.0695,4.0611,4.0723,4.0651,4.0681,4.0687,4.0693,4.0699,4.0606,4.0753,4.0998,4.1024,4.0705,4.0702,4.07,0,4.0313,4.0416,4.052,4.0542,4.0576,4.0624,4.064,4.0667,4.0703,4.0747,4.077,4.0822,4.0851,4.0891,4.0873,4.0813,4.0989,4.0903,4.0987,4.0988,4.1027,4.1025,4.1282,4.1046,4.1045,4.1045,4.1044,0,4.0509,4.0603,4.0591,4.0655,4.0758,4.0735,4.0837,4.0846,4.0871,4.0933,4.0889,4.0948,4.0921,4.0978,4.0964,4.106,4.1072,4.1071,4.1066,4.1076,4.1076,4.1095,4.1083,4.1052,4.105,4.1049,4.1048,0,4.0702,4.0698,4.0807,4.0832,4.084,4.0915,4.0935,4.0993,4.0992,4.1072,4.1089,4.1086,4.115,4.1137,4.1207,4.1197,4.1318,4.1298,4.1308,4.1304,4.1389,4.1382,4.1668,4.1704,4.1445,4.1447,4.1449,0,4.0828,4.09,4.0933,4.0974,4.0994,4.106,4.1097,4.1077,4.1117,4.1159,4.1212,4.1274,4.1322,4.1427,4.1429,4.1483,4.1464,4.1561,4.1472,4.1479,4.1467,4.1463,4.147,4.1579,4.1582,4.1584,4.1586,0,4.1052,4.1047,4.1104,4.1162,4.1209,4.1252,4.1291,4.1325,4.1308,4.1355,4.1423,4.1461,4.1534,4.1595,4.1645,4.1657,4.1619,4.1614,4.1637,4.1647,4.1651,4.1651,4.1357,4.1608,4.1605,4.1604,4.1603,4.1602,4.1215,4.1277,4.1311,4.1377,4.1404,4.1442,4.1499,4.1506,4.1563,4.1623,4.1606,4.1683,4.1711,4.1775,4.1794,4.1852,4.1816,4.1848,4.1856,4.1865,4.1876,4.1641,4.1861,4.186,4.1859,4.1859,4.1858,0,4.1437,4.1457,4.1518,4.1576,4.1627,4.1589,4.163,4.1675,4.1744,4.1775,4.1825,4.1902,4.1961,4.1969,4.2025,4.207,4.2053,4.2085,4.2082,4.2085,4.1905,4.188,4.2097,4.2097,4.2097,4.2097,4.2097,4.2097,4.1559,4.1663,4.1661,4.1777,4.1795,4.1873,4.1899,4.1933,4.1958,4.2048,4.2098,4.2104,4.2125,4.2183,4.2235,4.2235,4.2258,4.2297,4.229,4.2122,4.2098,4.2075,4.2052,4.2302,4.2302,4.2466,4.2468,4.2469]}]]